Home   Weather   Faridkot   Past weeks

Flag for India Past Weather in Faridkot, Punjab, India — Yesterday and Last 2 Weeks

Now
55 °F

Fog.


Feels Like: 53 °F
Forecast: 59 / 65 °F
Wind: 10 mph from North

Location: Lahore Airport

Current Time: Jan 24, 2017 at 8:50:24 pm

Latest Report: Jan 24, 2017 at 7:25 pm


Visibility: 2 mi

Pressure: 30.12 "Hg

Humidity: 82%

Dew Point: 50 °F

Location of FaridkotLocation

Past Weather in Faridkot — Graph

°F

Faridkot Temperature Yesterday

Maximum temperature yesterday: 70 °F (at 1:55 pm)
Minimum temperature yesterday: 43 °F (at 8:25 am)
Average temperature yesterday: 58 °F

High & Low Weather Summary for the Past Weeks

 TemperatureHumidityPressure
High70 °F (Jan 23, 1:55 pm)100% (Jan 16, 2:29 am)30.36 "Hg (Jan 16, 2:29 am)
Low36 °F (Jan 12, 7:25 am)22% (Jan 11, 3:55 pm)29.98 "Hg (Jan 10, 5:25 am)
Average53 °F67%30.12 "Hg
* Reported Jan 9 6:55 pm — Jan 24 7:25 pm, Faridkot, Weather by CustomWeather, © 2017

Note: Actual official high and low records may vary slightly from our data, if they occured in-between our weather recording intervals... More about our weather records

Advertising

Faridkot Weather History for the Previous 24 Hours

Scroll right to see more
 ConditionsComfort  
Time TempWeatherWind HumidityBarometerVisibility
7:25 pm
Tue, Jan 24
55 °FFog.10 mph82%30.12 "Hg2 mi
6:55 pm55 °FFog.8 mph88%30.12 "Hg1 mi
6:25 pm57 °FRain. Mostly cloudy.9 mph88%30.12 "Hg1 mi
5:55 pm57 °FRain. More clouds than sun.12 mph88%30.12 "Hg1 mi
5:25 pm57 °FFog.9 mph82%30.12 "Hg1 mi
4:55 pm59 °FBroken clouds.9 mph72%30.12 "Hg1 mi
4:25 pm59 °FBroken clouds.9 mph72%30.12 "Hg1 mi
3:55 pm59 °FBroken clouds.10 mph72%30.12 "Hg1 mi
3:25 pm61 °FBroken clouds.10 mph68%30.12 "Hg1 mi
2:55 pm61 °FBroken clouds.8 mph68%30.15 "Hg1 mi
2:25 pm61 °FBroken clouds.9 mph68%30.12 "Hg1 mi
1:55 pm61 °FBroken clouds.9 mph59%30.12 "Hg1 mi
1:25 pm61 °FBroken clouds.9 mph59%30.15 "Hg1 mi
12:55 pm63 °FBroken clouds.9 mph56%30.15 "Hg1 mi
12:25 pm63 °FBroken clouds.9 mph56%30.18 "Hg1 mi
11:55 am61 °FScattered clouds.9 mph55%30.18 "Hg1 mi
11:25 am61 °FScattered clouds.9 mph55%30.18 "Hg1 mi
10:55 am61 °FScattered clouds.8 mph63%30.18 "Hg1 mi
10:25 am59 °FScattered clouds.6 mph68%30.15 "Hg1 mi
9:55 am57 °FBroken clouds.5 mph72%30.15 "Hg1 mi
9:25 am55 °FBroken clouds.No wind77%30.12 "Hg1 mi
8:55 am54 °FFog.No wind77%30.12 "Hg1 mi
8:25 am50 °FFog.3 mph88%30.12 "Hg1 mi
7:55 am50 °FFog.3 mph88%30.09 "Hg1 mi
7:25 am50 °FFog.No wind88%30.09 "Hg1 mi
6:55 am50 °FFog.3 mph88%30.09 "Hg1 mi
6:25 am50 °FFog.No wind88%30.07 "Hg1 mi
5:55 am52 °FFog.No wind88%30.07 "Hg1 mi
5:25 am52 °FFog.No wind88%30.07 "Hg1 mi
4:55 am52 °FFog.5 mph88%30.07 "Hg1 mi
4:25 am52 °FFog.7 mph88%30.07 "Hg1 mi
3:55 am52 °FFog.5 mph88%30.09 "Hg1 mi
2:55 am54 °FFog.No wind82%30.09 "Hg2 mi
2:25 am54 °FFog.3 mph82%30.09 "Hg2 mi
1:55 am54 °FPassing clouds.3 mph82%30.09 "Hg2 mi
1:25 am55 °FPassing clouds.No wind77%30.09 "Hg2 mi
12:55 am55 °FPassing clouds.No wind72%30.09 "Hg2 mi
12:25 am55 °FPassing clouds.No wind72%30.12 "Hg2 mi
11:55 pm
Mon, Jan 23
55 °FPassing clouds.No wind72%30.12 "Hg2 mi
11:25 pm57 °FPassing clouds.No wind63%30.12 "Hg2 mi
10:55 pm57 °FPassing clouds.No wind67%30.12 "Hg2 mi
10:25 pm57 °FPassing clouds.No wind67%30.12 "Hg2 mi
9:55 pm59 °FPassing clouds.No wind59%30.12 "Hg2 mi
9:25 pm59 °FPassing clouds.No wind59%30.12 "Hg2 mi
8:55 pm61 °FPassing clouds.No wind52%30.12 "Hg2 mi
8:25 pm61 °FPassing clouds.No wind52%30.15 "Hg2 mi
Weather by CustomWeather, © 2017

See weather overviewHow to use our weather pages